Back to catalog

STARLINK-1273

AliveCommunicationsVLEO
NORAD 45367·PAYLOAD·🇺🇸 United States

Launched Mar 18, 2020 from Cape Canaveral Space Force Station

Loading…

Next Passes (next 24 hours)

TLE

FreshSource: CelesTrak SupGP

Epoch: Sep 14, 2026, 20:09 UTC

1 45367C 20019H   26257.84006944  .00002760  00000+0  23728-4 0  2571
2 45367  53.0380 316.7472 0002372  26.1145  16.4150 15.68667159    11

Track STARLINK-1273 in real time with AllMySat

Download on the App Store